Powrót do katalogu

FENGYUN 1C DEB

AktywnySSO
NORAD 30760·DEBRIS·🇨🇳 China

Wystrzelony May 10, 1999 z Taiyuan Satellite Launch Center

Loading…

Następne Przeloty (najbliższe 24 godziny)

TLE

ŚwieżeSource: Space-Track

Epoka: Sep 14, 2026, 04:54 UTC

1 30760U 99025ATW 26257.20443358  .00000392  00000-0  26572-3 0  9991
2 30760  98.8374 251.6808 0051885 291.2414  68.3217 14.05364383   898

Śledź FENGYUN 1C DEB w czasie rzeczywistym z AllMySat

Download on the App Store